• In Moldova, Republic
  • List of Countries
  • For 7 days
  • Water Temperature
  • Satellite Maps
  • Weather Map
  • Weather Widgets
  • user-avatar
    Login

    Hourly Weather Stublevka

    Today, 20 September, Thursday

    Time Temperature Precipitation Wind Pressure Humidity
    00:00 +14°C° 0 mm 4 mps 741 mmHg 91%
    01:00 +14°C° 0 mm 4 mps 740 mmHg 93%
    02:00 +14°C° 0 mm 4 mps 740 mmHg 94%
    03:00 +14°C° 0 mm 4 mps 740 mmHg 95%
    04:00 +14°C° 0 mm 3 mps 740 mmHg 95%
    05:00 +13°C° 0 mm 3 mps 740 mmHg 95%
    06:00 +15°C° 0 mm 4 mps 740 mmHg 92%
    07:00 +17°C° 0 mm 4 mps 740 mmHg 88%
    08:00 +18°C° 0 mm 4 mps 740 mmHg 84%
    09:00 +20°C° 0 mm 5 mps 740 mmHg 78%
    10:00 +21°C° 0 mm 5 mps 740 mmHg 73%
    11:00 +23°C° 0 mm 5 mps 741 mmHg 67%
    12:00 +23°C° 0 mm 5 mps 740 mmHg 65%
    13:00 +25°C° 0 mm 5 mps 740 mmHg 63%
    14:00 +25°C° 0 mm 5 mps 740 mmHg 61%
    15:00 +23°C° 0 mm 5 mps 740 mmHg 65%
    16:00 +22°C° 0 mm 4 mps 740 mmHg 70%
    17:00 +21°C° 0 mm 3 mps 741 mmHg 74%
    18:00 +19°C° 0 mm 3 mps 741 mmHg 78%
    19:00 +18°C° 0 mm 3 mps 741 mmHg 81%
    20:00 +17°C° 0 mm 2 mps 741 mmHg 85%
    21:00 +16°C° 0 mm 2 mps 742 mmHg 86%
    22:00 +16°C° 0 mm 2 mps 742 mmHg 87%
    23:00 +15°C° 0 mm 2 mps 742 mmHg 88%

    Tomorrow, 21 September, Friday

    Time Temperature Precipitation Wind Pressure Humidity
    00:00 +15°C° 0 mm 2 mps 742 mmHg 89%
    01:00 +15°C° 0 mm 1 mps 742 mmHg 89%
    02:00 +14°C° 0 mm 1 mps 742 mmHg 90%
    03:00 +14°C° 0 mm 1 mps 743 mmHg 90%
    04:00 +14°C° 0 mm 1 mps 743 mmHg 91%
    05:00 +13°C° 0 mm 1 mps 743 mmHg 91%
    06:00 +15°C° 0 mm 1 mps 743 mmHg 86%
    07:00 +16°C° 0 mm 1 mps 744 mmHg 81%
    08:00 +18°C° 0 mm 1 mps 744 mmHg 76%
    09:00 +20°C° 0 mm 1 mps 744 mmHg 71%
    10:00 +21°C° 0 mm 1 mps 744 mmHg 65%
    11:00 +23°C° 0 mm 1 mps 744 mmHg 59%
    12:00 +24°C° 0 mm 1 mps 744 mmHg 56%
    13:00 +24°C° 0 mm 1 mps 744 mmHg 53%
    14:00 +25°C° 0 mm 1 mps 744 mmHg 51%
    15:00 +24°C° 0 mm 1 mps 744 mmHg 55%
    16:00 +22°C° 0 mm 1 mps 744 mmHg 60%
    17:00 +21°C° 0 mm 1 mps 744 mmHg 65%
    18:00 +20°C° 0 mm 1 mps 744 mmHg 67%
    19:00 +19°C° 0 mm 1 mps 744 mmHg 70%
    20:00 +18°C° 0 mm 1 mps 744 mmHg 73%
    21:00 +18°C° 0 mm 1 mps 744 mmHg 75%
    22:00 +16°C° 0 mm 2 mps 744 mmHg 76%
    23:00 +16°C° 0 mm 2 mps 744 mmHg 78%

    Day after tomorrow, 22 September, Saturday

    Time Temperature Precipitation Wind Pressure Humidity
    00:00 +16°C° 0 mm 2 mps 743 mmHg 80%
    01:00 +15°C° 0 mm 2 mps 743 mmHg 81%
    02:00 +15°C° 0 mm 2 mps 743 mmHg 82%
    03:00 +14°C° 0 mm 3 mps 743 mmHg 83%
    04:00 +13°C° 0 mm 3 mps 743 mmHg 83%
    05:00 +13°C° 0 mm 3 mps 743 mmHg 84%
    06:00 +16°C° 0 mm 3 mps 743 mmHg 80%
    07:00 +17°C° 0 mm 4 mps 742 mmHg 75%
    08:00 +18°C° 0 mm 4 mps 742 mmHg 70%
    09:00 +20°C° 0 mm 4 mps 742 mmHg 66%
    10:00 +22°C° 0 mm 5 mps 742 mmHg 61%
    11:00 +23°C° 0 mm 5 mps 742 mmHg 57%
    12:00 +25°C° 0 mm 5 mps 741 mmHg 56%
    13:00 +24°C° 0 mm 6 mps 741 mmHg 54%
    14:00 +26°C° 0 mm 6 mps 740 mmHg 53%
    15:00 +25°C° 0 mm 5 mps 740 mmHg 58%
    16:00 +22°C° 0 mm 4 mps 739 mmHg 63%
    17:00 +21°C° 0 mm 4 mps 739 mmHg 67%
    18:00 +20°C° 0 mm 4 mps 739 mmHg 69%
    19:00 +19°C° 0 mm 4 mps 738 mmHg 71%
    20:00 +19°C° 0 mm 4 mps 738 mmHg 72%
    21:00 +18°C° 0 mm 4 mps 738 mmHg 71%
    22:00 +18°C° 0 mm 4 mps 737 mmHg 70%
    23:00 +17°C° 0 mm 5 mps 737 mmHg 69%

    23 September, Sunday

    Time Temperature Precipitation Wind Pressure Humidity
    00:00 +17°C° 0 mm 5 mps 737 mmHg 70%
    01:00 +17°C° 0 mm 4 mps 737 mmHg 72%
    02:00 +17°C° 0 mm 4 mps 736 mmHg 73%
    03:00 +15°C° 0.1 mm 4 mps 736 mmHg 76%
    04:00 +14°C° 0.1 mm 3 mps 735 mmHg 80%
    05:00 +13°C° 0.1 mm 3 mps 735 mmHg 83%
    06:00 +13°C° 0.4 mm 3 mps 735 mmHg 84%
    07:00 +13°C° 0.4 mm 4 mps 734 mmHg 85%
    08:00 +12°C° 0.4 mm 4 mps 734 mmHg 86%
    09:00 +11°C° 1.4 mm 4 mps 734 mmHg 87%
    10:00 +9°C° 1.4 mm 5 mps 734 mmHg 88%
    11:00 +7°C° 1.4 mm 6 mps 734 mmHg 90%
    12:00 +8°C° 0.9 mm 6 mps 734 mmHg 88%
    13:00 +8°C° 0.9 mm 5 mps 735 mmHg 87%
    14:00 +8°C° 0.9 mm 5 mps 735 mmHg 86%
    15:00 +9°C° 0.1 mm 5 mps 735 mmHg 86%
    16:00 +10°C° 0.1 mm 4 mps 735 mmHg 85%
    17:00 +10°C° 0.1 mm 4 mps 736 mmHg 85%
    18:00 +10°C° 0 mm 4 mps 736 mmHg 87%
    19:00 +8°C° 0 mm 4 mps 736 mmHg 89%
    20:00 +8°C° 0 mm 4 mps 736 mmHg 91%
    21:00 +7°C° 0 mm 4 mps 736 mmHg 91%
    22:00 +7°C° 0 mm 4 mps 736 mmHg 91%
    23:00 +7°C° 0 mm 4 mps 736 mmHg 91%

    24 September, Monday

    Time Temperature Precipitation Wind Pressure Humidity
    00:00 +7°C° 0 mm 4 mps 736 mmHg 92%
    01:00 +6°C° 0 mm 4 mps 736 mmHg 93%
    02:00 +6°C° 0 mm 4 mps 736 mmHg 93%
    03:00 +6°C° 0 mm 4 mps 737 mmHg 94%
    04:00 +5°C° 0 mm 3 mps 737 mmHg 94%
    05:00 +5°C° 0 mm 3 mps 737 mmHg 95%
    06:00 +6°C° 0 mm 4 mps 737 mmHg 91%
    07:00 +7°C° 0 mm 4 mps 737 mmHg 86%
    08:00 +8°C° 0 mm 4 mps 737 mmHg 82%
    09:00 +10°C° 0 mm 4 mps 737 mmHg 76%
    10:00 +12°C° 0 mm 5 mps 737 mmHg 69%
    11:00 +13°C° 0 mm 5 mps 737 mmHg 62%
    12:00 +13°C° 0 mm 5 mps 737 mmHg 60%
    13:00 +14°C° 0 mm 5 mps 737 mmHg 57%
    14:00 +14°C° 0 mm 5 mps 736 mmHg 55%
    15:00 +13°C° 0 mm 5 mps 735 mmHg 59%
    16:00 +12°C° 0 mm 5 mps 735 mmHg 62%
    17:00 +12°C° 0 mm 5 mps 734 mmHg 66%
    18:00 +10°C° 0.5 mm 5 mps 733 mmHg 68%
    19:00 +10°C° 0.5 mm 6 mps 732 mmHg 71%
    20:00 +10°C° 0.5 mm 7 mps 732 mmHg 73%
    21:00 +10°C° 0.7 mm 7 mps 731 mmHg 71%
    22:00 +10°C° 0.7 mm 8 mps 730 mmHg 69%
    23:00 +11°C° 0.7 mm 8 mps 729 mmHg 67%

    25 September, Tuesday

    Time Temperature Precipitation Wind Pressure Humidity
    00:00 +10°C° 1.4 mm 8 mps 728 mmHg 70%
    01:00 +10°C° 1.4 mm 9 mps 727 mmHg 74%
    02:00 +10°C° 1.4 mm 9 mps 726 mmHg 78%
    03:00 +10°C° 1 mm 9 mps 725 mmHg 80%
    04:00 +10°C° 1 mm 9 mps 725 mmHg 83%
    05:00 +10°C° 1 mm 8 mps 725 mmHg 85%
    06:00 +10°C° 0.1 mm 8 mps 725 mmHg 84%
    07:00 +9°C° 0.1 mm 8 mps 725 mmHg 82%
    08:00 +9°C° 0.1 mm 8 mps 725 mmHg 80%
    09:00 +9°C° 0.1 mm 8 mps 725 mmHg 78%
    10:00 +10°C° 0.1 mm 9 mps 725 mmHg 75%
    11:00 +10°C° 0.1 mm 9 mps 725 mmHg 73%
    12:00 +10°C° 0.1 mm 9 mps 725 mmHg 75%
    13:00 +8°C° 0.1 mm 9 mps 725 mmHg 76%
    14:00 +8°C° 0.1 mm 9 mps 725 mmHg 78%
    15:00 +8°C° 0.2 mm 9 mps 725 mmHg 80%
    16:00 +9°C° 0.2 mm 8 mps 726 mmHg 81%
    17:00 +7°C° 0.2 mm 8 mps 726 mmHg 82%
    18:00 +7°C° 0.1 mm 8 mps 727 mmHg 82%
    19:00 +7°C° 0.1 mm 8 mps 727 mmHg 82%
    20:00 +6°C° 0.1 mm 8 mps 728 mmHg 82%
    21:00 +6°C° 0 mm 8 mps 729 mmHg 82%
    22:00 +6°C° 0 mm 8 mps 729 mmHg 81%
    23:00 +6°C° 0 mm 8 mps 730 mmHg 81%
    Show more